Location: Julian California
(33.0790°N, 116.6010°W)
Time: 02:13:31
(UTC-07:00)

Cosmos 2369 Rocket - Pass Details

Date: 12 July 2018
Orbit: 829 x 853 km, 71.0° (Epoch: 23 September)

Event Time Altitude Azimuth Distance (km) Brightness Sun altitude
Rises 21:00:55 0° 216° (SW) 3,381 5.3 -12.2°
Reaches altitude 10° 21:03:28 10° 222° (SW) 2,446 4.7 -12.6°
Maximum altitude 21:08:48 44° 294° (WNW) 1,134 3.4 -13.5°
Drops below altitude 10° 21:14:09 10° 7° (N) 2,443 5.0 -14.4°
Sets 21:16:42 0° 14° (NNE) 3,377 5.7 -14.8°
